• In Austria
  • List of Countries
  • For 7 days
  • Water Temperature
  • Satellite Maps
  • Weather Map
  • News
  • Weather Widgets
  • user-avatar
    Login

    Hourly Weather Khammouan

    Today, 19 November, Sunday

    Time Temperature Precipitation Wind Pressure Humidity
    00:00 +24°C° 0.2 mm 2 mps 721 mmHg 90%
    01:00 +24°C° 0 mm 1 mps 721 mmHg 90%
    02:00 +24°C° 0.4 mm 1 mps 721 mmHg 89%
    03:00 +24°C° 0.4 mm 2 mps 721 mmHg 88%
    04:00 +25°C° 0.4 mm 2 mps 721 mmHg 87%
    05:00 +25°C° 0.2 mm 2 mps 721 mmHg 86%
    06:00 +25°C° 0.2 mm 2 mps 721 mmHg 84%
    07:00 +25°C° 0.2 mm 2 mps 722 mmHg 83%
    08:00 +26°C° 0 mm 2 mps 722 mmHg 78%
    09:00 +27°C° 0 mm 3 mps 723 mmHg 73%
    10:00 +28°C° 0 mm 3 mps 723 mmHg 67%
    11:00 +28°C° 0 mm 3 mps 723 mmHg 65%
    12:00 +29°C° 0 mm 3 mps 722 mmHg 62%
    13:00 +29°C° 0 mm 4 mps 722 mmHg 59%
    14:00 +29°C° 0 mm 3 mps 722 mmHg 61%
    15:00 +28°C° 0 mm 3 mps 721 mmHg 63%
    16:00 +27°C° 0 mm 3 mps 721 mmHg 64%
    17:00 +26°C° 0 mm 3 mps 721 mmHg 69%
    18:00 +25°C° 0 mm 2 mps 721 mmHg 74%
    19:00 +23°C° 0 mm 2 mps 722 mmHg 79%
    20:00 +23°C° 0 mm 2 mps 722 mmHg 80%
    21:00 +23°C° 0 mm 2 mps 722 mmHg 82%
    22:00 +23°C° 0 mm 2 mps 723 mmHg 83%
    23:00 +21°C° 0 mm 2 mps 723 mmHg 84%

    Tomorrow, 20 November, Monday

    Time Temperature Precipitation Wind Pressure Humidity
    00:00 +21°C° 0 mm 2 mps 722 mmHg 85%
    01:00 +22°C° 0 mm 1 mps 722 mmHg 86%
    02:00 +22°C° 0.2 mm 1 mps 722 mmHg 87%
    03:00 +22°C° 0.2 mm 1 mps 722 mmHg 88%
    04:00 +22°C° 0.2 mm 1 mps 721 mmHg 89%
    05:00 +22°C° 0.7 mm 1 mps 722 mmHg 90%
    06:00 +22°C° 0.7 mm 1 mps 722 mmHg 91%
    07:00 +22°C° 0.7 mm 1 mps 722 mmHg 93%
    08:00 +22°C° 2 mm 1 mps 722 mmHg 93%
    09:00 +22°C° 2 mm 1 mps 723 mmHg 94%
    10:00 +22°C° 2 mm 1 mps 723 mmHg 95%
    11:00 +22°C° 2 mm 1 mps 723 mmHg 95%
    12:00 +23°C° 2 mm 1 mps 722 mmHg 94%
    13:00 +23°C° 2 mm 1 mps 722 mmHg 94%
    14:00 +23°C° 0.8 mm 1 mps 721 mmHg 93%
    15:00 +23°C° 0.8 mm 1 mps 721 mmHg 92%
    16:00 +23°C° 0.8 mm 1 mps 720 mmHg 91%
    17:00 +23°C° 0.3 mm 1 mps 721 mmHg 92%
    18:00 +22°C° 0.3 mm 1 mps 721 mmHg 93%
    19:00 +22°C° 0.3 mm 1 mps 721 mmHg 93%
    20:00 +21°C° 0.2 mm 2 mps 722 mmHg 92%
    21:00 +21°C° 0.2 mm 2 mps 722 mmHg 91%
    22:00 +21°C° 0.2 mm 2 mps 723 mmHg 91%
    23:00 +21°C° 0 mm 2 mps 722 mmHg 90%

    Day after tomorrow, 21 November, Tuesday

    Time Temperature Precipitation Wind Pressure Humidity
    00:00 +22°C° 0 mm 1 mps 722 mmHg 90%
    01:00 +22°C° 0 mm 1 mps 722 mmHg 90%
    02:00 +22°C° 0 mm 1 mps 721 mmHg 91%
    03:00 +21°C° 0 mm 1 mps 721 mmHg 91%
    04:00 +21°C° 0 mm 1 mps 721 mmHg 92%
    05:00 +22°C° 0 mm 1 mps 721 mmHg 91%
    06:00 +22°C° 0 mm 1 mps 722 mmHg 90%
    07:00 +22°C° 0 mm 1 mps 722 mmHg 90%
    08:00 +24°C° 0 mm 1 mps 723 mmHg 83%
    09:00 +25°C° 0 mm 1 mps 723 mmHg 77%
    10:00 +27°C° 0 mm 1 mps 724 mmHg 71%
    11:00 +28°C° 0 mm 1 mps 723 mmHg 66%
    12:00 +30°C° 0 mm 2 mps 723 mmHg 61%
    13:00 +31°C° 0 mm 2 mps 722 mmHg 56%
    14:00 +30°C° 0 mm 2 mps 721 mmHg 61%
    15:00 +28°C° 0 mm 2 mps 721 mmHg 65%
    16:00 +27°C° 0 mm 2 mps 720 mmHg 70%
    17:00 +26°C° 0 mm 2 mps 721 mmHg 74%
    18:00 +24°C° 0 mm 2 mps 721 mmHg 79%
    19:00 +23°C° 0 mm 2 mps 721 mmHg 83%
    20:00 +23°C° 0 mm 2 mps 722 mmHg 84%
    21:00 +22°C° 0 mm 1 mps 722 mmHg 86%
    22:00 +22°C° 0 mm 1 mps 722 mmHg 87%
    23:00 +22°C° 0 mm 1 mps 722 mmHg 88%

    22 November, Wednesday

    Time Temperature Precipitation Wind Pressure Humidity
    00:00 +22°C° 0 mm 1 mps 722 mmHg 89%
    01:00 +22°C° 0 mm 1 mps 721 mmHg 90%
    02:00 +22°C° 0 mm 1 mps 721 mmHg 91%
    03:00 +21°C° 0 mm 1 mps 721 mmHg 91%
    04:00 +21°C° 0 mm 1 mps 720 mmHg 92%
    05:00 +22°C° 0 mm 1 mps 721 mmHg 91%
    06:00 +22°C° 0 mm 1 mps 721 mmHg 89%
    07:00 +22°C° 0 mm 1 mps 722 mmHg 88%
    08:00 +25°C° 0 mm 1 mps 722 mmHg 79%
    09:00 +27°C° 0 mm 1 mps 723 mmHg 71%
    10:00 +29°C° 0 mm 2 mps 723 mmHg 62%
    11:00 +30°C° 0.1 mm 2 mps 722 mmHg 63%
    12:00 +30°C° 0.1 mm 2 mps 722 mmHg 64%
    13:00 +30°C° 0.1 mm 2 mps 721 mmHg 65%
    14:00 +29°C° 0.6 mm 2 mps 720 mmHg 69%
    15:00 +28°C° 0.6 mm 2 mps 720 mmHg 74%
    16:00 +27°C° 0.6 mm 2 mps 719 mmHg 78%
    17:00 +26°C° 0.1 mm 2 mps 720 mmHg 81%
    18:00 +25°C° 0.1 mm 2 mps 720 mmHg 85%
    19:00 +23°C° 0.1 mm 2 mps 721 mmHg 89%
    20:00 +23°C° 0 mm 1 mps 721 mmHg 89%
    21:00 +23°C° 0 mm 1 mps 722 mmHg 90%
    22:00 +22°C° 0 mm 1 mps 722 mmHg 91%
    23:00 +22°C° 0.1 mm 1 mps 722 mmHg 91%

    23 November, Thursday

    Time Temperature Precipitation Wind Pressure Humidity
    00:00 +22°C° 0.1 mm 1 mps 721 mmHg 91%
    01:00 +22°C° 0.1 mm 1 mps 721 mmHg 92%
    02:00 +22°C° 0.1 mm 1 mps 721 mmHg 92%
    03:00 +22°C° 0.1 mm 1 mps 721 mmHg 92%
    04:00 +22°C° 0.1 mm 1 mps 721 mmHg 92%
    05:00 +22°C° 0.1 mm 1 mps 721 mmHg 91%
    06:00 +23°C° 0.1 mm 1 mps 722 mmHg 90%
    07:00 +23°C° 0.1 mm 1 mps 722 mmHg 89%
    08:00 +24°C° 0.1 mm 1 mps 723 mmHg 82%
    09:00 +26°C° 0.1 mm 2 mps 723 mmHg 76%
    10:00 +27°C° 0.1 mm 2 mps 724 mmHg 69%
    11:00 +27°C° 0.1 mm 2 mps 723 mmHg 67%
    12:00 +28°C° 0.1 mm 3 mps 722 mmHg 64%
    13:00 +28°C° 0.1 mm 3 mps 722 mmHg 62%
    14:00 +28°C° 0.1 mm 3 mps 721 mmHg 64%
    15:00 +27°C° 0.1 mm 3 mps 721 mmHg 67%
    16:00 +26°C° 0.1 mm 3 mps 721 mmHg 69%
    17:00 +25°C° 0 mm 3 mps 722 mmHg 72%
    18:00 +24°C° 0 mm 3 mps 722 mmHg 74%
    19:00 +21°C° 0 mm 3 mps 723 mmHg 76%
    20:00 +21°C° 0 mm 3 mps 723 mmHg 77%
    21:00 +21°C° 0 mm 3 mps 724 mmHg 78%
    22:00 +20°C° 0 mm 3 mps 724 mmHg 79%
    23:00 +20°C° 0 mm 3 mps 724 mmHg 80%

    24 November, Friday

    Time Temperature Precipitation Wind Pressure Humidity
    00:00 +20°C° 0 mm 2 mps 723 mmHg 80%
    01:00 +19°C° 0 mm 2 mps 723 mmHg 81%
    02:00 +19°C° 0 mm 2 mps 723 mmHg 81%
    03:00 +19°C° 0 mm 2 mps 723 mmHg 81%
    04:00 +19°C° 0 mm 2 mps 723 mmHg 81%
    05:00 +19°C° 0 mm 2 mps 723 mmHg 81%
    06:00 +19°C° 0 mm 2 mps 724 mmHg 81%
    07:00 +19°C° 0 mm 2 mps 724 mmHg 80%
    08:00 +20°C° 0 mm 3 mps 725 mmHg 74%
    09:00 +22°C° 0 mm 3 mps 725 mmHg 69%
    10:00 +24°C° 0 mm 3 mps 726 mmHg 63%
    11:00 +25°C° 0 mm 3 mps 725 mmHg 61%
    12:00 +26°C° 0 mm 4 mps 724 mmHg 59%
    13:00 +26°C° 0 mm 4 mps 724 mmHg 57%
    14:00 +25°C° 0 mm 3 mps 724 mmHg 60%
    15:00 +25°C° 0 mm 3 mps 723 mmHg 62%
    16:00 +24°C° 0 mm 3 mps 723 mmHg 65%
    17:00 +21°C° 0 mm 3 mps 723 mmHg 70%
    18:00 +20°C° 0 mm 3 mps 724 mmHg 74%
    19:00 +18°C° 0 mm 2 mps 724 mmHg 79%
    20:00 +18°C° 0 mm 2 mps 724 mmHg 80%
    21:00 +18°C° 0 mm 2 mps 724 mmHg 80%
    22:00 +18°C° 0 mm 2 mps 724 mmHg 81%
    23:00 +18°C° 0 mm 2 mps 724 mmHg 82%
    Show more